Location: Saint-Restitut
(44.3351°N, 4.7915°E)
Time: 13:42:52
(UTC+00:00)

Cosmos 2278 Rocket - Pass Details

Date: 03 February 2023
Orbit: 841 x 845 km, 71.0° (Epoch: 19 March)

Event Time Altitude Azimuth Distance (km) Brightness Sun altitude
Rises 18:13:04 0° 345° (NNW) 3,415 5.4 -14.6°
Reaches altitude 10° 18:16:49 10° 9° (N) 2,476 4.5 -15.3°
Enters shadow 18:19:41 14° 40° (NE) 2,175 3.9 -15.8°
